Location: Unspecified
(0.0000°N, 0.0000°E)
Time: 00:56:13
(UTC+00:00)

Explorer 11/Cluster Stage 4 - Visible Passes

Search period start: 19 April 2019 00:00
Search period end: 29 April 2019 00:00
Orbit: 467 x 1260 km, 28.8° (Epoch: 17 April)

Date Brightness Start Highest point End Pass type
(mag) Time Alt. Az. Time Alt. Az. Time Alt. Az.
27 Apr 9.2 19:12:43 10° NNE 19:13:02 10° NNE 19:13:21 10° NNE visible
27 Apr 9.3 20:57:40 10° NNW 20:58:44 14° NNW 20:58:44 14° NNW visible
28 Apr 9.1 18:59:43 10° N 19:02:40 13° NNE 19:05:25 10° NE visible
28 Apr 9.0 20:46:34 10° NW 20:48:54 20° NNW 20:48:54 20° NNW visible
